[[{"header":{"parameterUnit":"m.s-1","parameterCategory":2,"la1":30.2991,"la2":30.254,"lo1":-89.0895,"lo2":-89.0444,"dy":0.0017,"dx":0.0017,"nx":28,"ny":28,"refTime":"2023-08-11T03:00:00:Z","depth":"0","parameterNumber":2,"parameterNumberName":"U-component_of_CURRENTS"},"data":[0,0,0,0,0,0,0,0,0,0,0,0,0,0,0,0,0,0,0,0,0,0,0,0,0,0,0,0,0,0,0,0,0,0,0,0,0,0,0,0,0,0,0,0,0,0,0,0,0,0,0,0,0,0,0,0,0,0,0.3618,0.3617,0,0.3543,0.3543,0.3542,0.3532,0.3533,0.3533,0.3533,0.3587,0.3588,0.3589,0,0,0,0,0,0,0,0,0,0,0,0,0,0.3808,0.3805,0.3619,0.3617,0.3616,0.3543,0.3543,0.3542,0.3532,0.3533,0.3533,0.3533,0.3586,0.3588,0.3589,0,0,0,0,0,0,0,0,0,0,0,0,0,0.3733,0.3804,0.3619,0.3599,0.3596,0.3543,0.3543,0.3542,0.3532,0.3533,0.3533,0.3534,0.3586,0.3587,0.3589,0.3589,0,0,0.3594,0.3595,0,0,0,0,0,0,0,0,0.3737,0.3726,0.3603,0.36,0.3597,0.3544,0.3629,0.3562,0.3532,0.3561,0.3533,0.3534,0.3581,0.3583,0.3572,0.3591,0.3594,0.3594,0.3595,0.3596,0.3596,0,0,0,0,0,0,0,0.3742,0.3729,0.3593,0.3602,0.3598,0.3613,0.3602,0.3616,0.3575,0.3558,0.3556,0.3541,0.3581,0.357,0.3573,0.3594,0.3594,0.3596,0.3597,0.3597,0.3689,0.3691,0,0,0,0,0,0,0.3739,0.3734,0.3595,0.359,0.3665,0.3608,0.3597,0.3564,0.3572,0.3571,0.3541,0.3541,0.3567,0.3571,0.3575,0.3582,0.3596,0.3597,0.3598,0.3688,0.369,0.3691,0,0,0,0,0,0,0.3743,0.3726,0.3598,0.3659,0.3643,0.3604,0.3567,0.3562,0.3547,0.3556,0.3559,0.353,0.3568,0.3573,0.3588,0.3585,0.3598,0.36,0.3686,0.3689,0.3691,0.3593,0,0,0,0,0,0,0.3748,0.3728,0.3708,0.3657,0.3639,0.3559,0.3566,0.356,0.3535,0.3535,0.3548,0.3553,0.3569,0.3585,0.359,0.3587,0.3601,0.3684,0.3687,0.369,0.3594,0.3592,0.3589,0,0,0,0,0,0.3755,0.3721,0.3707,0.3691,0.361,0.3557,0.3549,0.3528,0.3534,0.3519,0.3537,0.3553,0.3608,0.3586,0.3591,0.3589,0.3683,0.3687,0.369,0.3596,0.3592,0.3589,0,0,0,0,0,0,0.3783,0.3715,0.3699,0.3642,0.36,0.3554,0.3534,0.3524,0.3522,0.3529,0.355,0.3556,0.3573,0.3606,0.3583,0.3634,0.3657,0.3661,0.3584,0.3581,0.3578,0.3554,0.3602,0,0,0,0,0,0.3781,0.374,0.368,0.3634,0.3612,0.3575,0.3553,0.3536,0.3522,0.3521,0.3522,0.3555,0.3591,0.3603,0.363,0.3643,0.3652,0.3659,0.3656,0.3653,0.3642,0.3679,0.3677,0.3702,0.3702,0.3702,0,0,0.3773,0.3734,0.3707,0.3639,0.3606,0.3551,0.3564,0.3521,0.349,0.353,0.3496,0.3535,0.3595,0.3609,0.3622,0.3632,0.3643,0.3657,0.3653,0.3645,0.3682,0.3679,0.3676,0.3704,0.3704,0.3704,0,0,0.3736,0.3707,0.3658,0.3617,0.3562,0.3539,0.3525,0.3471,0.3468,0.3442,0.3483,0.3524,0.3537,0.3588,0.3619,0.3629,0.3627,0.3642,0.3599,0.3634,0.3631,0.3629,0.3584,0.3579,0.3641,0.3641,0.364,0,0.3728,0.3653,0.3638,0.3577,0.3535,0.3529,0.3464,0.3456,0.3416,0.3423,0.3424,0.3482,0.3534,0.3583,0.3588,0.3619,0.3603,0.3593,0.3625,0.3623,0.3622,0.3578,0.3573,0.3636,0.3637,0.3637,0.3638,0,0.3651,0.3586,0.3554,0.3474,0.3438,0.3383,0.336,0.3347,0.3346,0.3339,0.3369,0.3429,0.3469,0.3504,0.3541,0.3575,0.3549,0.3609,0.3615,0.3612,0.3567,0.3563,0.363,0.3632,0.3633,0.3634,0,0,0.3626,0.3518,0.3504,0.3446,0.3378,0.3334,0.331,0.3284,0.3279,0.3275,0.3265,0.3351,0.3384,0.3426,0.3489,0.3525,0.3501,0.3547,0.3551,0.3468,0.3497,0.3327,0.3306,0.3548,0.3548,0.3548,0.3446,0,0.356,0.3438,0.3407,0.3289,0.3216,0.3214,0.3192,0.3185,0.3196,0.319,0.3277,0.3295,0.3356,0.3377,0.342,0.3503,0.3495,0.3518,0.3543,0.3542,0.3364,0.33,0.3165,0.305,0.3443,0.3442,0.3442,0,0.3476,0.3411,0.329,0.3193,0.3166,0.3111,0.309,0.3069,0.3102,0.3119,0.3155,0.3198,0.3263,0.3313,0.3395,0.3395,0.3421,0.3468,0.3467,0.3341,0.3366,0.3133,0.3029,0.2943,0.3437,0.3437,0.3437,0,0.3446,0.3317,0.3226,0.3183,0.3092,0.3064,0.3035,0.3049,0.3041,0.3071,0.3055,0.3136,0.3156,0.3234,0.3311,0.335,0.3362,0.3446,0.3297,0.3284,0.3192,0.3169,0.2983,0.3463,0.3464,0.3464,0.3464,0,0.3363,0.3277,0.3204,0.3142,0.3059,0.3022,0.2965,0.297,0.2973,0.2943,0.301,0.2994,0.3137,0.3157,0.325,0.322,0.331,0.3245,0.3244,0.3148,0.3123,0.3067,0.307,0.346,0.3461,0.3462,0.3462,0,0.3286,0.3248,0.3131,0.305,0.3024,0.2965,0.289,0.2857,0.2878,0.2836,0.2833,0.2877,0.2895,0.2982,0.3089,0.31,0.3026,0.3103,0.2924,0.2902,0.2669,0.2673,0.2416,0.2364,0.2911,0.2906,0.2902,0,0.3205,0.3142,0.306,0.3007,0.2951,0.2873,0.2819,0.2814,0.2779,0.2757,0.2725,0.2714,0.2686,0.2714,0.2763,0.2794,0.2807,0.2646,0.2715,0.2574,0.2584,0.2539,0.2515,0.2547,0.254,0.2534,0.253,0,0.3037,0.3037,0.2966,0.2879,0.2804,0.2733,0.2659,0.2618,0.2609,0.258,0.2515,0.2487,0.2458,0.2413,0.2411,0.2446,0.2481,0.2528,0.2471,0.2316,0.2172,0.215,0.2653,0.2481,0.2486,0.249,0.2492,0.2494,0.2902,0.2849,0.2785,0.2687,0.2632,0.2561,0.2457,0.2413,0.2345,0.2225,0.231,0.2181,0.2152,0.2133,0.2118,0.198,0.2108,0.1969,0.1992,0.1961,0.1875,0.2195,0.1977,0.1979,0.1981,0.1982,0.1983,0,0.2663,0.2643,0.2573,0.2464,0.2366,0.2401,0.2307,0.2189,0.2052,0.2008,0.1935,0.1819,0.1728,0.1691,0.1613,0.1511,0.1499,0.1459,0.1425,0.1444,0.1798,0.1747,0.1361,0.1361,0.1361,0.1362,0.1362,0.1362,0.2524,0.2412,0.2404,0.2202,0.2146,0.1978,0.1908,0.1778,0.1708,0.152,0.1412,0.1428,0.1464,0.1343,0.1193,0.1148,0.111,0.0982,0.1055,0.1368,0.142,0.147,0.1421,0.0973,0.0972,0.0653,0.065,0.0648]},{"header":{"parameterUnit":"m.s-1","parameterCategory":2,"la1":30.2991,"la2":30.254,"lo1":-89.0895,"lo2":-89.0444,"dy":0.0017,"dx":0.0017,"nx":28,"ny":28,"refTime":"2023-08-11T03:00:00:Z","depth":"0","parameterNumber":3,"parameterNumberName":"V-component_of_CURRENTS"},"data":[0,0,0,0,0,0,0,0,0,0,0,0,0,0,0,0,0,0,0,0,0,0,0,0,0,0,0,0,0,0,0,0,0,0,0,0,0,0,0,0,0,0,0,0,0,0,0,0,0,0,0,0,0,0,0,0,0,0,0.1232,0.1234,0,0.1442,0.1444,0.1447,0.1553,0.1553,0.1552,0.1551,0.1638,0.1641,0.1644,0,0,0,0,0,0,0,0,0,0,0,0,0,0.1025,0.1028,0.1232,0.1234,0.1236,0.1441,0.1445,0.1448,0.1553,0.1553,0.1552,0.1551,0.1637,0.1641,0.1644,0,0,0,0,0,0,0,0,0,0,0,0,0,0.1169,0.1029,0.1231,0.1308,0.1316,0.144,0.1445,0.1449,0.1553,0.1553,0.1552,0.1551,0.1636,0.164,0.1645,0.1688,0,0,0.1658,0.166,0,0,0,0,0,0,0,0,0.1161,0.1177,0.1295,0.1303,0.1312,0.1464,0.1404,0.1521,0.1554,0.1471,0.1551,0.155,0.1565,0.1575,0.1628,0.1692,0.1696,0.1658,0.1661,0.1662,0.1664,0,0,0,0,0,0,0,0.115,0.1169,0.1322,0.1297,0.1307,0.1366,0.1386,0.1428,0.1523,0.1478,0.1484,0.1497,0.157,0.1624,0.163,0.1697,0.1658,0.1662,0.1664,0.1666,0.1805,0.1806,0,0,0,0,0,0,0.1107,0.116,0.1315,0.1327,0.1225,0.137,0.1392,0.1422,0.1525,0.154,0.1497,0.1501,0.1617,0.1625,0.1633,0.1674,0.1662,0.1666,0.1669,0.1803,0.1805,0.1806,0,0,0,0,0,0,0.1102,0.112,0.1306,0.1242,0.1268,0.1373,0.1407,0.1426,0.1479,0.1541,0.1553,0.1528,0.1617,0.1627,0.1684,0.1678,0.1668,0.1672,0.1802,0.1804,0.1805,0.1765,0,0,0,0,0,0,0.1096,0.1117,0.1128,0.1239,0.127,0.1391,0.1408,0.1431,0.1485,0.1492,0.157,0.1579,0.1617,0.1677,0.1688,0.1684,0.1676,0.1801,0.1803,0.1805,0.1765,0.1765,0.1766,0,0,0,0,0,0.1088,0.1104,0.1128,0.1146,0.1281,0.1392,0.1416,0.149,0.1486,0.153,0.1574,0.1576,0.1697,0.1683,0.1695,0.1691,0.18,0.1802,0.1805,0.1765,0.1765,0.1766,0,0,0,0,0,0,0.1011,0.112,0.1147,0.1192,0.1286,0.1407,0.1442,0.1486,0.1561,0.1555,0.1601,0.1615,0.1662,0.1689,0.1671,0.174,0.1744,0.1749,0.171,0.1711,0.1711,0.1686,0.1679,0,0,0,0,0,0.0998,0.1048,0.1155,0.1193,0.1233,0.1334,0.1383,0.144,0.1516,0.155,0.16,0.1644,0.1686,0.1706,0.1759,0.1797,0.1803,0.1802,0.1802,0.1802,0.1792,0.1815,0.1815,0.1814,0.1814,0.1814,0,0,0.0968,0.1041,0.1061,0.1181,0.1253,0.1329,0.1365,0.1445,0.1495,0.1542,0.1612,0.1652,0.17,0.1752,0.1772,0.1768,0.1805,0.1805,0.1804,0.1795,0.1817,0.1817,0.1817,0.1816,0.1816,0.1815,0,0,0.096,0.1008,0.1057,0.1138,0.125,0.132,0.1335,0.1458,0.1497,0.1574,0.1608,0.1652,0.1725,0.1765,0.1786,0.1819,0.181,0.1823,0.1796,0.1818,0.1817,0.1816,0.181,0.1809,0.1815,0.1815,0.1815,0,0.0907,0.1005,0.1086,0.1165,0.1217,0.1307,0.1368,0.1433,0.1556,0.1574,0.1587,0.1687,0.1733,0.1771,0.1785,0.1817,0.1812,0.1785,0.1814,0.1814,0.1814,0.1808,0.1808,0.1814,0.1814,0.1814,0.1814,0,0.0971,0.1033,0.1066,0.1191,0.1259,0.1329,0.1419,0.1477,0.1513,0.1569,0.1617,0.1687,0.1736,0.1756,0.178,0.1799,0.1789,0.1813,0.1803,0.1811,0.1805,0.1805,0.1811,0.1812,0.1812,0.1813,0,0,0.087,0.1067,0.1075,0.1131,0.1277,0.1335,0.1401,0.1487,0.151,0.1589,0.161,0.1685,0.1699,0.1725,0.1756,0.1772,0.1776,0.178,0.1782,0.1754,0.179,0.1699,0.1691,0.1792,0.1792,0.1792,0.1778,0,0.0886,0.1022,0.1118,0.121,0.1277,0.1365,0.1421,0.1497,0.1548,0.1592,0.1625,0.1669,0.169,0.1706,0.1723,0.1782,0.1776,0.1775,0.1803,0.1804,0.1707,0.1689,0.1695,0.1675,0.1779,0.1779,0.1779,0,0.092,0.1006,0.1111,0.1226,0.1257,0.1311,0.1391,0.146,0.1531,0.1562,0.1591,0.1627,0.1667,0.168,0.1736,0.1728,0.1742,0.1771,0.1772,0.1699,0.1714,0.1691,0.1672,0.1645,0.1779,0.1779,0.1779,0,0.0838,0.0986,0.1063,0.1113,0.1264,0.1286,0.1346,0.1434,0.1477,0.1534,0.1552,0.1604,0.1626,0.1666,0.1715,0.1729,0.1754,0.1795,0.1714,0.1708,0.1725,0.1718,0.1668,0.1801,0.1801,0.1801,0.1801,0,0.083,0.0875,0.1024,0.1065,0.1118,0.1228,0.127,0.1339,0.1414,0.1447,0.1515,0.1533,0.1621,0.1648,0.1693,0.1686,0.1736,0.169,0.1694,0.1709,0.1702,0.1689,0.1714,0.1801,0.1801,0.1801,0.1801,0,0.0745,0.0856,0.0935,0.1063,0.1094,0.1124,0.1224,0.1256,0.1335,0.1374,0.1388,0.1478,0.1514,0.157,0.164,0.1644,0.1667,0.1644,0.1631,0.1631,0.1523,0.1548,0.149,0.1575,0.1565,0.1563,0.1561,0,0.0731,0.0776,0.0904,0.0934,0.0986,0.1044,0.1088,0.1199,0.1236,0.1334,0.1341,0.1385,0.1404,0.1451,0.1498,0.1527,0.1566,0.1512,0.1542,0.1487,0.1521,0.1518,0.1598,0.1559,0.1557,0.1556,0.1554,0,0.0688,0.0734,0.0799,0.0855,0.0898,0.0956,0.1016,0.1039,0.1161,0.1191,0.1232,0.1255,0.1306,0.1336,0.1355,0.14,0.1522,0.1476,0.1455,0.1518,0.1483,0.1577,0.1578,0.1541,0.1542,0.1543,0.1544,0.1544,0.0637,0.0665,0.0746,0.0783,0.0833,0.0866,0.0867,0.0936,0.0984,0.1032,0.1096,0.1106,0.1191,0.1235,0.1261,0.1307,0.139,0.1337,0.1374,0.1374,0.1439,0.1362,0.13,0.13,0.13,0.13,0.13,0,0.0593,0.0631,0.0666,0.0723,0.0732,0.0778,0.0826,0.0815,0.0831,0.09,0.0919,0.0972,0.1018,0.1101,0.1196,0.1218,0.1309,0.1239,0.1286,0.1387,0.1346,0.1326,0.1222,0.1222,0.1222,0.1222,0.1222,0.1222,0.0572,0.0594,0.0618,0.0622,0.0639,0.063,0.0631,0.062,0.0656,0.0676,0.0718,0.0811,0.1007,0.1007,0.1099,0.1146,0.1268,0.1203,0.1294,0.1281,0.1295,0.1308,0.1291,0.1182,0.1182,0.1365,0.1367,0.1368]}],[{"header":{"parameterUnit":"m.s-1","parameterCategory":2,"la1":30.2991,"la2":30.254,"lo1":-89.0895,"lo2":-89.0444,"dy":0.0017,"dx":0.0017,"nx":28,"ny":28,"refTime":"2023-08-11T03:00:00:Z","depth":"2","parameterNumber":2,"parameterNumberName":"U-component_of_CURRENTS"},"data":[0,0,0,0,0,0,0,0,0,0,0,0,0,0,0,0,0,0,0,0,0,0,0,0,0,0,0,0,0,0,0,0,0,0,0,0,0,0,0,0,0,0,0,0,0,0,0,0,0,0,0,0,0,0,0,0,0,0,0.2321,0.2324,0,0.2535,0.2537,0.2539,0.2655,0.2656,0.2657,0.2658,0.2773,0.2775,0.2777,0,0,0,0,0,0,0,0,0,0,0,0,0,0.2132,0.2133,0.2321,0.2324,0.2328,0.2535,0.2537,0.2539,0.2655,0.2656,0.2657,0.2658,0.2772,0.2774,0.2777,0,0,0,0,0,0,0,0,0,0,0,0,0,0.2258,0.2133,0.232,0.2416,0.2428,0.2535,0.2537,0.254,0.2654,0.2656,0.2657,0.2659,0.2771,0.2774,0.2777,0.2765,0,0,0.2787,0.2788,0,0,0,0,0,0,0,0,0.2251,0.2264,0.2399,0.241,0.2423,0.2577,0.2513,0.2613,0.2654,0.2559,0.2658,0.266,0.2702,0.2711,0.2738,0.2771,0.2776,0.2787,0.2789,0.279,0.2791,0,0,0,0,0,0,0,0.2242,0.2256,0.2397,0.2403,0.2418,0.2491,0.2508,0.2533,0.2611,0.2568,0.2579,0.2616,0.2707,0.2734,0.2741,0.2777,0.2787,0.279,0.2792,0.2793,0.2671,0.2666,0,0,0,0,0,0,0.2224,0.2247,0.2391,0.2405,0.2349,0.2493,0.2512,0.2519,0.2614,0.2633,0.2614,0.262,0.2728,0.2737,0.2745,0.2728,0.279,0.2793,0.2795,0.2676,0.267,0.2664,0,0,0,0,0,0,0.2219,0.2233,0.2382,0.2339,0.2365,0.2495,0.2502,0.2523,0.2598,0.2651,0.2667,0.2673,0.273,0.2741,0.272,0.2734,0.2795,0.2798,0.2682,0.2674,0.2667,0.2699,0,0,0,0,0,0,0.2211,0.2229,0.2281,0.2337,0.2367,0.2427,0.2502,0.2526,0.2619,0.263,0.2706,0.2716,0.2732,0.2714,0.2723,0.2739,0.28,0.2689,0.2679,0.2669,0.2704,0.2693,0.2684,0,0,0,0,0,0.2203,0.2177,0.228,0.2302,0.2414,0.2427,0.2446,0.2541,0.2621,0.2621,0.2643,0.2716,0.2659,0.2713,0.2724,0.2743,0.2693,0.2681,0.267,0.2709,0.2696,0.2684,0,0,0,0,0,0,0.2136,0.2191,0.2303,0.2311,0.239,0.2449,0.248,0.2563,0.2594,0.2604,0.267,0.2676,0.2658,0.266,0.2719,0.2656,0.2681,0.2671,0.2706,0.2694,0.2684,0.2728,0.2803,0,0,0,0,0,0.2154,0.2132,0.2243,0.2259,0.2303,0.2423,0.247,0.2516,0.2541,0.2565,0.263,0.2637,0.2611,0.2624,0.26,0.2593,0.2573,0.259,0.258,0.2573,0.2599,0.2524,0.2513,0.2626,0.2627,0.2627,0,0,0.2154,0.2168,0.2183,0.2246,0.2324,0.235,0.2449,0.2475,0.25,0.2564,0.2613,0.2618,0.259,0.2556,0.255,0.2576,0.2516,0.2558,0.2554,0.2585,0.2511,0.2502,0.2493,0.2619,0.262,0.2621,0,0,0.2076,0.2146,0.2127,0.2177,0.2266,0.2298,0.2319,0.2411,0.2464,0.2514,0.2517,0.2508,0.2563,0.25,0.2485,0.2394,0.2456,0.2403,0.2425,0.235,0.2343,0.2337,0.2276,0.2264,0.2412,0.2412,0.2412,0,0.2141,0.2104,0.2131,0.2137,0.2183,0.2277,0.2295,0.2332,0.2406,0.2435,0.2522,0.2535,0.2527,0.2438,0.2415,0.2385,0.2372,0.25,0.2348,0.2341,0.2335,0.2274,0.226,0.2412,0.2412,0.2412,0.2412,0,0.2056,0.2081,0.2056,0.2095,0.2109,0.212,0.218,0.219,0.2304,0.2397,0.242,0.2421,0.2434,0.2418,0.2428,0.2348,0.2361,0.2346,0.2413,0.2328,0.2265,0.2251,0.2412,0.2412,0.2412,0.2412,0,0,0.2136,0.2041,0.2062,0.2083,0.21,0.2096,0.2058,0.2095,0.2134,0.2246,0.2313,0.2294,0.2384,0.236,0.2347,0.2319,0.2259,0.2356,0.2352,0.2354,0.2129,0.1996,0.1968,0.2257,0.2254,0.2253,0.2101,0,0.215,0.2085,0.2033,0.2028,0.2029,0.2031,0.2009,0.2022,0.2111,0.2179,0.2212,0.2275,0.2332,0.2366,0.2342,0.2289,0.2228,0.2303,0.216,0.2156,0.2097,0.1948,0.1833,0.1676,0.2087,0.2085,0.2083,0,0.215,0.2091,0.204,0.1996,0.2013,0.202,0.1993,0.1996,0.2031,0.2103,0.2163,0.2246,0.2216,0.2287,0.2191,0.2262,0.2201,0.2166,0.2158,0.2026,0.1995,0.1821,0.1635,0.206,0.2062,0.2063,0.2065,0,0.2161,0.2127,0.2055,0.2057,0.1996,0.1993,0.2009,0.2017,0.2018,0.2077,0.2123,0.2146,0.2164,0.2124,0.2097,0.2158,0.1991,0.2026,0.1821,0.1812,0.1676,0.1657,0.19,0.19,0.1901,0.1901,0.1902,0,0.2169,0.2161,0.208,0.2071,0.2046,0.2034,0.2056,0.2045,0.2058,0.2042,0.2135,0.2077,0.2141,0.2079,0.2053,0.189,0.1926,0.1799,0.1746,0.1673,0.1656,0.1972,0.1983,0.1895,0.1897,0.1898,0.1899,0,0.2181,0.2113,0.2071,0.2038,0.2036,0.2048,0.2077,0.2066,0.2101,0.2056,0.2064,0.2028,0.1931,0.1947,0.1831,0.1786,0.1658,0.1562,0.1485,0.1425,0.1553,0.1566,0.1347,0.1341,0.1335,0.1331,0.1327,0,0.2148,0.2109,0.2066,0.2044,0.2057,0.2076,0.2043,0.206,0.2019,0.1962,0.1885,0.1833,0.1701,0.1521,0.1383,0.1257,0.1427,0.1123,0.1183,0.1515,0.1488,0.1509,0.1529,0.1012,0.1006,0.1001,0.0997,0,0.211,0.211,0.2063,0.2043,0.2021,0.1976,0.1976,0.1934,0.1877,0.1828,0.1687,0.16,0.1355,0.114,0.0981,0.0895,0.1161,0.1013,0.1328,0.1169,0.1186,0.1164,0.1197,0.0953,0.0957,0.0961,0.0963,0.0965,0.209,0.2081,0.2034,0.199,0.1946,0.1878,0.1847,0.1797,0.1693,0.1551,0.1451,0.1239,0.103,0.0678,0.0622,0.0644,0.0678,0.0756,0.0777,0.0803,0.079,0.0795,0.0488,0.049,0.0491,0.0492,0.0493,0,0.2015,0.2004,0.1987,0.1865,0.1776,0.1831,0.172,0.1612,0.1453,0.1343,0.1189,0.0799,0.0562,0.0499,0.0396,0.0336,0.0401,0.0437,0.0564,0.06,0.0634,0.0623,0.0272,0.0273,0.0274,0.0275,0,0,0.1981,0.1907,0.1874,0.1666,0.1635,0.1475,0.1436,0.1302,0.119,0.0982,0.0827,0.0551,0.0428,0.0321,0.0268,0.0334,0.0512,0.033,0.0479,0.0664,0.0703,0.0745,0.0755,0,0,0,0,0]},{"header":{"parameterUnit":"m.s-1","parameterCategory":2,"la1":30.2991,"la2":30.254,"lo1":-89.0895,"lo2":-89.0444,"dy":0.0017,"dx":0.0017,"nx":28,"ny":28,"refTime":"2023-08-11T03:00:00:Z","depth":"2","parameterNumber":3,"parameterNumberName":"V-component_of_CURRENTS"},"data":[0,0,0,0,0,0,0,0,0,0,0,0,0,0,0,0,0,0,0,0,0,0,0,0,0,0,0,0,0,0,0,0,0,0,0,0,0,0,0,0,0,0,0,0,0,0,0,0,0,0,0,0,0,0,0,0,0,0,-0.0285,-0.0282,0,0.0064,0.0068,0.0072,0.0204,0.0203,0.0201,0.02,0.0317,0.0321,0.0325,0,0,0,0,0,0,0,0,0,0,0,0,0,-0.0537,-0.0535,-0.0286,-0.0282,-0.0277,0.0063,0.0068,0.0073,0.0204,0.0202,0.0201,0.02,0.0315,0.032,0.0325,0,0,0,0,0,0,0,0,0,0,0,0,0,-0.0331,-0.0534,-0.0287,-0.0172,-0.0158,0.0062,0.0069,0.0075,0.0204,0.0202,0.0201,0.0199,0.0313,0.032,0.0326,0.0401,0,0,0.0345,0.0348,0,0,0,0,0,0,0,0,-0.0344,-0.0322,-0.0193,-0.0179,-0.0164,0.0087,0.0023,0.0172,0.0205,0.0068,0.02,0.0198,0.0219,0.0233,0.0308,0.0406,0.0411,0.0346,0.035,0.0352,0.0354,0,0,0,0,0,0,0,-0.0358,-0.0335,-0.0146,-0.0188,-0.017,-0.0034,-0.0009,0.0054,0.0146,0.008,0.009,0.0127,0.0225,0.0302,0.0311,0.0413,0.0346,0.0351,0.0355,0.0358,0.0384,0.0381,0,0,0,0,0,0,-0.0418,-0.035,-0.0157,-0.0136,-0.0261,-0.0029,-0.0001,0.001,0.0151,0.0172,0.0129,0.0132,0.0292,0.0303,0.0315,0.0333,0.0352,0.0358,0.0362,0.0387,0.0383,0.038,0,0,0,0,0,0,-0.0425,-0.0405,-0.0171,-0.0234,-0.0195,-0.0026,-0.0012,0.0017,0.0134,0.019,0.0207,0.0218,0.0291,0.0306,0.0313,0.0341,0.0361,0.0367,0.039,0.0386,0.0381,0.0419,0,0,0,0,0,0,-0.0434,-0.041,-0.0388,-0.0239,-0.0194,-0.0035,-0.0009,0.0025,0.0157,0.0166,0.0271,0.0279,0.0291,0.0303,0.0319,0.035,0.0372,0.0394,0.0388,0.0383,0.0421,0.0416,0.0411,0,0,0,0,0,-0.0445,-0.0431,-0.039,-0.0364,-0.0183,-0.0033,0.0005,0.0121,0.0163,0.022,0.0224,0.0278,0.0276,0.0306,0.0326,0.0359,0.0397,0.039,0.0383,0.0424,0.0417,0.0411,0,0,0,0,0,0,-0.0477,-0.0411,-0.0365,-0.0316,-0.0178,-0.0011,0.0056,0.0154,0.0227,0.0205,0.0264,0.0271,0.0263,0.0295,0.0327,0.033,0.0338,0.0335,0.0362,0.0356,0.0351,0.0395,0.0377,0,0,0,0,0,-0.0487,-0.0497,-0.0353,-0.0303,-0.0248,-0.0078,0.0011,0.0082,0.0159,0.0199,0.0286,0.0295,0.0253,0.0291,0.0271,0.0332,0.0323,0.0346,0.0341,0.0337,0.0374,0.0292,0.0285,0.0357,0.0357,0.0357,0,0,-0.048,-0.0445,-0.0438,-0.0315,-0.0208,-0.0112,-0.0029,0.0084,0.0162,0.0189,0.0312,0.0283,0.0245,0.0248,0.0256,0.0295,0.0313,0.0328,0.0327,0.0366,0.0284,0.0278,0.0272,0.0352,0.0353,0.0354,0,0,-0.0482,-0.0443,-0.0442,-0.0331,-0.0196,-0.012,-0.008,0.0107,0.0181,0.0303,0.0244,0.0214,0.0337,0.0246,0.022,0.0183,0.0251,0.0207,0.0288,0.0206,0.0202,0.0197,0.0204,0.02,0.0252,0.0252,0.0252,0,-0.046,-0.042,-0.0395,-0.0321,-0.0225,-0.0125,-0.0032,0.0051,0.0224,0.0268,0.0334,0.036,0.0318,0.0227,0.0199,0.0179,0.0196,0.0329,0.0207,0.0202,0.0197,0.0205,0.02,0.0253,0.0253,0.0253,0.0253,0,-0.0438,-0.036,-0.0333,-0.0254,-0.0173,-0.0065,0.0028,0.0093,0.0212,0.0333,0.0365,0.0326,0.0349,0.0308,0.0272,0.0194,0.0238,0.0176,0.0243,0.0193,0.0203,0.0198,0.0254,0.0254,0.0254,0.0253,0,0,-0.0479,-0.0345,-0.0321,-0.0229,-0.0109,-0.003,-0.0004,0.0103,0.0162,0.0322,0.0429,0.0343,0.0396,0.0357,0.0286,0.0245,0.0198,0.0251,0.0246,0.0299,0.0123,0.0241,0.0247,0.0152,0.015,0.0149,0.0156,0,-0.0421,-0.0297,-0.0257,-0.0097,-0.0004,0.005,0.0083,0.0149,0.0264,0.0379,0.035,0.0406,0.0393,0.0398,0.0354,0.0205,0.0184,0.0208,0.0129,0.0128,0.0271,0.0243,0.0126,0.0131,0.0151,0.015,0.015,0,-0.0397,-0.0306,-0.0185,-0.0008,0.0034,0.0119,0.0179,0.0244,0.0306,0.0381,0.0447,0.0494,0.0426,0.0425,0.0285,0.0331,0.0254,0.0174,0.0169,0.0274,0.0236,0.0171,0.0121,0.0141,0.0141,0.0142,0.0143,0,-0.045,-0.0232,-0.0151,-0.007,0.0079,0.013,0.0221,0.0272,0.0303,0.04,0.0467,0.0468,0.0454,0.038,0.0293,0.0294,0.0173,0.0113,0.0157,0.0167,0.0048,0.0051,0.0012,0.0012,0.0012,0.0012,0.0012,0,-0.0409,-0.0285,-0.0137,-0.0058,0.004,0.0162,0.0263,0.0297,0.0365,0.0402,0.0504,0.0504,0.0446,0.0413,0.0328,0.0277,0.0194,0.0198,0.017,0.0061,0.0065,0.0045,0.0049,0.0013,0.0012,0.0012,0.0012,0,-0.0439,-0.0362,-0.0219,-0.0034,0.001,0.0101,0.0281,0.0334,0.0409,0.0443,0.0465,0.05,0.0477,0.0464,0.0302,0.0305,0.0217,0.0198,0.0147,0.0117,0.0273,0.0277,0.0281,0.0286,0.0289,0.0292,0.0294,0,-0.0419,-0.0384,-0.0234,-0.0167,-0.0042,0.0114,0.0151,0.0268,0.0305,0.0414,0.0382,0.0454,0.0481,0.0433,0.0366,0.0331,0.0273,0.0238,0.0191,0.0326,0.0296,0.0295,0.0295,0.0037,0.0037,0.0037,0.0037,0,-0.037,-0.0367,-0.0272,-0.0146,-0.0058,0.0028,0.0165,0.0155,0.0239,0.0286,0.0326,0.0403,0.0427,0.0357,0.0395,0.0338,0.0262,0.025,0.0313,0.0031,0.0106,0.0075,0.0079,0.0038,0.0038,0.0038,0.0038,0.0038,-0.0344,-0.0289,-0.0207,-0.0107,-0.0025,0.0013,0.0077,0.0154,0.0174,0.0244,0.0235,0.0328,0.0276,0.0324,0.0316,0.0337,0.0322,0.0255,0.0247,0.024,0.0255,0.0336,0.0318,0.0319,0.032,0.0321,0.0322,0,-0.0263,-0.0235,-0.013,-0.0053,0.002,0.0068,0.0086,0.0093,0.0109,0.0166,0.0218,0.0172,0.0191,0.0216,0.0221,0.0265,0.0211,0.0287,0.0124,0.012,0.0117,0.012,0.015,0.0151,0.0152,0.0153,0,0,-0.0214,-0.0159,-0.0152,-0.0063,0.0021,0.0049,0.0054,0.0039,0.0071,0.0096,0.0142,0.016,0.0169,0.0129,0.011,0.0135,0.0156,0.0169,0.0277,0.0074,0.0074,0.0043,0.0039,0,0,0,0,0]}],[{"header":{"parameterUnit":"m.s-1","parameterCategory":2,"la1":30.2991,"la2":30.254,"lo1":-89.0895,"lo2":-89.0444,"dy":0.0017,"dx":0.0017,"nx":28,"ny":28,"refTime":"2023-08-11T03:00:00:Z","depth":"4","parameterNumber":2,"parameterNumberName":"U-component_of_CURRENTS"},"data":[0,0,0,0,0,0,0,0,0,0,0,0,0,0,0,0,0,0,0,0,0,0,0,0,0,0,0,0,0,0,0,0,0,0,0,0,0,0,0,0,0,0,0,0,0,0,0,0,0,0,0,0,0,0,0,0,0,0,-0.0665,-0.0665,0,-0.0625,-0.0624,-0.0623,-0.0532,-0.053,-0.0529,-0.0527,-0.0465,-0.0464,-0.0464,0,0,0,0,0,0,0,0,0,0,0,0,0,-0.0598,-0.06,-0.0665,-0.0665,-0.0665,-0.0625,-0.0624,-0.0623,-0.0532,-0.053,-0.0528,-0.0527,-0.0465,-0.0464,-0.0464,0,0,0,0,0,0,0,0,0,0,0,0,0,-0.0595,-0.06,-0.0665,-0.0619,-0.0614,-0.0626,-0.0624,-0.0623,-0.0532,-0.053,-0.0528,-0.0526,-0.0465,-0.0464,-0.0464,-0.0504,0,0,-0.0462,-0.0462,0,0,0,0,0,0,0,0,-0.0595,-0.0597,-0.0626,-0.0622,-0.0617,-0.0586,-0.0578,-0.0584,-0.0533,-0.0558,-0.0527,-0.0525,-0.0508,-0.0504,-0.0494,-0.0501,-0.0498,-0.0462,-0.0462,-0.0462,-0.0462,0,0,0,0,0,0,0,-0.0596,-0.0598,-0.0644,-0.0626,-0.0621,-0.0578,-0.0575,-0.0578,-0.0541,-0.0556,-0.055,-0.0555,-0.0504,-0.0495,-0.0492,-0.0497,-0.0462,-0.0462,-0.0461,-0.0461,-0.0606,-0.061,0,0,0,0,0,0,-0.0617,-0.0599,-0.0646,-0.0644,-0.0606,-0.0581,-0.0578,-0.0594,-0.0542,-0.0533,-0.0556,-0.0551,-0.0497,-0.0493,-0.0489,-0.055,-0.0462,-0.0461,-0.0461,-0.0601,-0.0606,-0.0611,0,0,0,0,0,0,-0.0616,-0.0622,-0.0647,-0.0623,-0.0624,-0.0586,-0.0604,-0.0594,-0.0515,-0.0543,-0.0533,-0.0479,-0.0495,-0.049,-0.0473,-0.0546,-0.0461,-0.046,-0.0597,-0.0603,-0.0609,-0.0661,0,0,0,0,0,0,-0.0615,-0.0622,-0.0638,-0.0625,-0.0626,-0.0611,-0.0606,-0.0595,-0.0528,-0.0517,-0.0476,-0.0471,-0.0493,-0.0474,-0.0473,-0.0544,-0.046,-0.0591,-0.0599,-0.0607,-0.0654,-0.0668,-0.068,0,0,0,0,0,-0.0612,-0.0633,-0.0639,-0.0644,-0.065,-0.061,-0.0604,-0.0567,-0.0525,-0.0485,-0.0483,-0.0469,-0.0526,-0.0474,-0.0472,-0.0545,-0.0588,-0.0597,-0.0606,-0.0648,-0.0665,-0.068,0,0,0,0,0,0,-0.0611,-0.0627,-0.0632,-0.0658,-0.0621,-0.0595,-0.0565,-0.0527,-0.0489,-0.046,-0.0475,-0.0473,-0.0501,-0.0512,-0.0456,-0.0622,-0.0574,-0.0583,-0.0607,-0.0623,-0.0636,-0.066,-0.046,0,0,0,0,0,-0.0626,-0.0638,-0.0632,-0.0643,-0.062,-0.0576,-0.0552,-0.0508,-0.0481,-0.0454,-0.0435,-0.0466,-0.0554,-0.0565,-0.0601,-0.0651,-0.0656,-0.0719,-0.0732,-0.0742,-0.0768,-0.0845,-0.0866,-0.0642,-0.0641,-0.0641,0,0,-0.0642,-0.064,-0.0656,-0.0642,-0.0606,-0.0598,-0.055,-0.0475,-0.0508,-0.046,-0.0459,-0.047,-0.0571,-0.0655,-0.0675,-0.066,-0.0802,-0.0754,-0.0762,-0.0783,-0.0857,-0.0878,-0.0897,-0.0648,-0.0647,-0.0646,0,0,-0.0629,-0.0651,-0.0636,-0.0607,-0.0542,-0.0553,-0.0514,-0.0445,-0.045,-0.0441,-0.0484,-0.0544,-0.0564,-0.0719,-0.0801,-0.091,-0.0853,-0.0899,-0.0993,-0.1067,-0.1085,-0.1102,-0.1086,-0.1101,-0.0923,-0.0924,-0.0924,0,-0.0643,-0.0629,-0.0618,-0.0575,-0.058,-0.053,-0.0512,-0.0541,-0.048,-0.0539,-0.0438,-0.0607,-0.0648,-0.091,-0.0951,-0.0948,-0.0908,-0.0914,-0.108,-0.1097,-0.1112,-0.1093,-0.1109,-0.0927,-0.0927,-0.0926,-0.0926,0,-0.0605,-0.0591,-0.0563,-0.0547,-0.0558,-0.0507,-0.0563,-0.0571,-0.0555,-0.0597,-0.0723,-0.0778,-0.0892,-0.0945,-0.0969,-0.1162,-0.1065,-0.1064,-0.1024,-0.1137,-0.111,-0.1125,-0.0932,-0.0931,-0.093,-0.0929,0,0,-0.0643,-0.0562,-0.0546,-0.0546,-0.0528,-0.0539,-0.0645,-0.0757,-0.0861,-0.0829,-0.0969,-0.1134,-0.1099,-0.1195,-0.1246,-0.1326,-0.1384,-0.1213,-0.1215,-0.1169,-0.1437,-0.1198,-0.119,-0.1356,-0.1361,-0.1364,-0.1353,0,-0.0606,-0.0529,-0.0536,-0.0546,-0.0526,-0.0594,-0.073,-0.0841,-0.0918,-0.1034,-0.1171,-0.1267,-0.1231,-0.1244,-0.1336,-0.1369,-0.143,-0.1381,-0.1361,-0.1361,-0.1113,-0.1205,-0.1378,-0.1364,-0.1367,-0.1369,-0.1371,0,-0.0565,-0.0524,-0.0483,-0.0571,-0.0583,-0.0619,-0.0846,-0.0943,-0.1169,-0.1216,-0.1339,-0.1378,-0.1544,-0.1442,-0.1573,-0.1501,-0.1472,-0.1482,-0.1482,-0.1259,-0.1153,-0.1246,-0.1397,-0.1395,-0.1393,-0.1392,-0.139,0,-0.0563,-0.0528,-0.0507,-0.0506,-0.0586,-0.0654,-0.0742,-0.0965,-0.1114,-0.1282,-0.1347,-0.1523,-0.1554,-0.1594,-0.1571,-0.1541,-0.1646,-0.1629,-0.1415,-0.1394,-0.1584,-0.1567,-0.1731,-0.1731,-0.1731,-0.1731,-0.1731,0,-0.0531,-0.0529,-0.0481,-0.0458,-0.0553,-0.0613,-0.0786,-0.0912,-0.1115,-0.1259,-0.1381,-0.1436,-0.1569,-0.1632,-0.1611,-0.152,-0.1673,-0.1441,-0.1399,-0.1599,-0.1585,-0.1589,-0.1573,-0.1731,-0.1731,-0.1731,-0.1731,0,-0.0518,-0.0464,-0.0455,-0.0485,-0.0519,-0.0569,-0.0767,-0.092,-0.1056,-0.1229,-0.1256,-0.139,-0.1343,-0.149,-0.1537,-0.1525,-0.1508,-0.1448,-0.1608,-0.1572,-0.1192,-0.1179,-0.1208,-0.12,-0.1194,-0.1188,-0.1183,0,-0.0496,-0.0453,-0.0445,-0.0465,-0.0457,-0.0553,-0.0672,-0.0853,-0.0945,-0.1131,-0.1153,-0.1202,-0.1251,-0.117,-0.1254,-0.1264,-0.1252,-0.1298,-0.1301,-0.1194,-0.1151,-0.1149,-0.1145,-0.1172,-0.1171,-0.1169,-0.1167,0,-0.0477,-0.0443,-0.0435,-0.0441,-0.0498,-0.0612,-0.069,-0.0736,-0.0906,-0.1093,-0.1019,-0.1033,-0.0984,-0.0957,-0.1003,-0.1002,-0.1314,-0.1227,-0.1242,-0.1245,-0.115,-0.1114,-0.1118,-0.1144,-0.1147,-0.1149,-0.1151,0,-0.048,-0.0464,-0.0426,-0.0435,-0.0531,-0.0555,-0.0629,-0.0653,-0.0756,-0.0894,-0.0803,-0.0836,-0.0892,-0.0806,-0.0808,-0.0824,-0.0801,-0.0869,-0.0902,-0.0929,-0.0845,-0.0685,-0.0511,0,0,0,0,0,-0.0479,-0.044,-0.0452,-0.0417,-0.0504,-0.0547,-0.0628,-0.0681,-0.0774,-0.0704,-0.0763,-0.0677,-0.0639,-0.0593,-0.0543,-0.065,-0.0813,-0.0595,-0.0911,-0.1013,-0.104,-0.0967,0,0,0,0,0,0,-0.0483,-0.048,-0.0426,-0.0396,-0.0384,-0.0473,-0.0513,-0.0569,-0.0473,-0.0563,-0.0485,-0.064,-0.0542,-0.0642,-0.0522,-0.0533,-0.0722,-0.0626,-0.0624,-0.0998,-0.1022,-0.1044,-0.0979,0,0,0,0,0]},{"header":{"parameterUnit":"m.s-1","parameterCategory":2,"la1":30.2991,"la2":30.254,"lo1":-89.0895,"lo2":-89.0444,"dy":0.0017,"dx":0.0017,"nx":28,"ny":28,"refTime":"2023-08-11T03:00:00:Z","depth":"4","parameterNumber":3,"parameterNumberName":"V-component_of_CURRENTS"},"data":[0,0,0,0,0,0,0,0,0,0,0,0,0,0,0,0,0,0,0,0,0,0,0,0,0,0,0,0,0,0,0,0,0,0,0,0,0,0,0,0,0,0,0,0,0,0,0,0,0,0,0,0,0,0,0,0,0,0,-0.0069,-0.007,0,-0.0211,-0.0213,-0.0215,-0.0243,-0.0241,-0.024,-0.0238,-0.0316,-0.0319,-0.0323,0,0,0,0,0,0,0,0,0,0,0,0,0,0.0008,0.0007,-0.0069,-0.007,-0.0072,-0.0211,-0.0213,-0.0215,-0.0243,-0.0241,-0.0239,-0.0237,-0.0315,-0.0319,-0.0323,0,0,0,0,0,0,0,0,0,0,0,0,0,-0.0073,0.0007,-0.0069,-0.0099,-0.0103,-0.021,-0.0213,-0.0216,-0.0243,-0.0241,-0.0239,-0.0237,-0.0313,-0.0319,-0.0324,-0.0402,0,0,-0.034,-0.0342,0,0,0,0,0,0,0,0,-0.0068,-0.0076,-0.0093,-0.0097,-0.0101,-0.0203,-0.0214,-0.0273,-0.0244,-0.0195,-0.0238,-0.0235,-0.0271,-0.028,-0.0319,-0.0405,-0.0409,-0.034,-0.0343,-0.0346,-0.0347,0,0,0,0,0,0,0,-0.0062,-0.0071,-0.013,-0.0095,-0.01,-0.0163,-0.0171,-0.0227,-0.0246,-0.0199,-0.02,-0.0209,-0.0273,-0.0314,-0.032,-0.041,-0.034,-0.0345,-0.0348,-0.035,-0.0413,-0.0411,0,0,0,0,0,0,-0.0029,-0.0065,-0.0125,-0.0134,-0.0074,-0.0165,-0.0175,-0.0176,-0.0247,-0.0255,-0.0211,-0.021,-0.0306,-0.0314,-0.0323,-0.033,-0.0346,-0.035,-0.0353,-0.0414,-0.0412,-0.0411,0,0,0,0,0,0,-0.0027,-0.0033,-0.0119,-0.0099,-0.0114,-0.0167,-0.017,-0.018,-0.0187,-0.0256,-0.0263,-0.0202,-0.0304,-0.0316,-0.0355,-0.0336,-0.0353,-0.0358,-0.0416,-0.0414,-0.0412,-0.0401,0,0,0,0,0,0,-0.0024,-0.0031,-0.0014,-0.0097,-0.0114,-0.0177,-0.0172,-0.0184,-0.0196,-0.0195,-0.0252,-0.0259,-0.0303,-0.0347,-0.036,-0.0343,-0.0362,-0.0418,-0.0415,-0.0412,-0.0403,-0.0398,-0.0395,0,0,0,0,0,-0.0021,-0.0026,-0.0012,-0.0019,-0.009,-0.0178,-0.0194,-0.0228,-0.0197,-0.022,-0.0243,-0.0255,-0.0336,-0.0352,-0.0367,-0.0351,-0.0419,-0.0416,-0.0412,-0.0405,-0.0399,-0.0395,0,0,0,0,0,0,0.0003,-0.0031,-0.0018,-0.0033,-0.0087,-0.018,-0.0197,-0.0209,-0.025,-0.0223,-0.0274,-0.0286,-0.03,-0.0325,-0.0341,-0.0352,-0.0365,-0.0365,-0.0353,-0.0349,-0.0345,-0.0345,-0.0366,0,0,0,0,0,0.0024,0.0024,-0.0033,-0.0043,-0.006,-0.0114,-0.0143,-0.0162,-0.0212,-0.0225,-0.0257,-0.0275,-0.0308,-0.0326,-0.0358,-0.0395,-0.0371,-0.0377,-0.0373,-0.037,-0.0375,-0.03,-0.029,-0.04,-0.04,-0.04,0,0,0.0032,0.0014,0.0015,-0.0035,-0.007,-0.0131,-0.0127,-0.0163,-0.0201,-0.0228,-0.0263,-0.0267,-0.031,-0.0341,-0.0347,-0.0359,-0.0326,-0.0365,-0.0363,-0.037,-0.0296,-0.0285,-0.0276,-0.0398,-0.0398,-0.0398,0,0,0.0012,0.0035,0.0017,-0.0027,-0.0067,-0.0113,-0.011,-0.0171,-0.0177,-0.0224,-0.0227,-0.0208,-0.0287,-0.0296,-0.0317,-0.0303,-0.0301,-0.0305,-0.0303,-0.023,-0.0221,-0.0213,-0.0175,-0.0163,-0.031,-0.031,-0.031,0,0.0032,-0.0004,-0.0008,-0.0054,-0.0093,-0.0099,-0.0156,-0.0183,-0.0243,-0.0241,-0.0222,-0.0243,-0.026,-0.0284,-0.0282,-0.0293,-0.0274,-0.0329,-0.0226,-0.0217,-0.0208,-0.0172,-0.0159,-0.0309,-0.0309,-0.0309,-0.031,0,-0.0025,-0.0047,-0.0067,-0.0116,-0.0163,-0.0207,-0.0247,-0.0255,-0.0238,-0.0253,-0.0231,-0.0232,-0.0246,-0.0227,-0.0272,-0.0223,-0.0237,-0.0224,-0.0243,-0.0197,-0.0161,-0.0148,-0.0308,-0.0308,-0.0309,-0.0309,0,0,-0.0001,-0.0086,-0.0088,-0.0133,-0.0193,-0.025,-0.028,-0.0327,-0.033,-0.0302,-0.0297,-0.029,-0.0241,-0.0258,-0.0254,-0.019,-0.011,-0.0199,-0.0195,-0.0171,0.0018,-0.0123,-0.0122,-0.009,-0.0087,-0.0085,0.0015,0,-0.0042,-0.0138,-0.0169,-0.0268,-0.0331,-0.0345,-0.039,-0.041,-0.0398,-0.0387,-0.0304,-0.0302,-0.0272,-0.0264,-0.0191,-0.0141,-0.0075,-0.0141,-0.0024,-0.0021,-0.0158,-0.0111,-0.0077,0.0025,0.0028,0.003,0.0032,0,-0.0094,-0.0155,-0.0244,-0.0355,-0.0377,-0.0412,-0.046,-0.0502,-0.0471,-0.0454,-0.0389,-0.0356,-0.0277,-0.0236,-0.0086,-0.014,-0.0067,0.0001,0.0007,-0.0122,-0.0137,-0.0027,0.0056,0.0054,0.0052,0.0051,0.0049,0,-0.011,-0.0219,-0.0286,-0.0323,-0.0429,-0.0433,-0.0471,-0.0481,-0.0515,-0.0469,-0.0466,-0.0367,-0.0309,-0.0185,-0.0081,-0.0083,0.0095,0.0118,0.0073,0.0064,0.0155,0.0145,0.025,0.025,0.025,0.025,0.025,0,-0.0165,-0.0229,-0.0276,-0.0319,-0.039,-0.0435,-0.0484,-0.0503,-0.0505,-0.0529,-0.0478,-0.0461,-0.0291,-0.0197,-0.0083,0.0011,0.01,0.0073,0.0084,0.0156,0.0145,0.0164,0.0152,0.0254,0.0253,0.0252,0.0251,0,-0.0198,-0.0226,-0.0318,-0.0385,-0.0399,-0.0435,-0.0515,-0.0564,-0.0546,-0.0563,-0.0555,-0.0506,-0.0416,-0.0279,-0.0082,-0.0015,0.0106,0.0122,0.0159,0.017,0.0032,0.002,0.0091,0.0087,0.0084,0.0081,0.0078,0,-0.0241,-0.0275,-0.0348,-0.0392,-0.0408,-0.0466,-0.0526,-0.0563,-0.0579,-0.0594,-0.0577,-0.0543,-0.0503,-0.0311,-0.0187,-0.0014,0.0009,0.0082,0.0084,0.0013,0.0018,0.0012,0.0005,0.0073,0.0072,0.0071,0.007,0,-0.0329,-0.0314,-0.0381,-0.0443,-0.0489,-0.059,-0.0614,-0.0615,-0.0637,-0.0657,-0.0604,-0.0566,-0.0491,-0.0358,-0.0257,-0.0118,0.0041,0.0047,0.0056,0.0059,-0.0007,-0.0001,-0.0004,0.0058,0.006,0.0061,0.0062,0,-0.0378,-0.0417,-0.0458,-0.0485,-0.0602,-0.0643,-0.0663,-0.0657,-0.0675,-0.0618,-0.0608,-0.0556,-0.0505,-0.0416,-0.0305,-0.0225,-0.0194,-0.0115,-0.0096,-0.0082,-0.0189,-0.0303,-0.0317,0,0,0,0,0,-0.0434,-0.0439,-0.0511,-0.0535,-0.0654,-0.0685,-0.072,-0.0711,-0.0673,-0.0643,-0.061,-0.0554,-0.0479,-0.0439,-0.0382,-0.0384,-0.0191,-0.0316,-0.009,-0.0008,0.0006,-0.0107,0,0,0,0,0,0,-0.0474,-0.0536,-0.0506,-0.0566,-0.0594,-0.0703,-0.0728,-0.0696,-0.0628,-0.0589,-0.0535,-0.0535,-0.0446,-0.0503,-0.0376,-0.0363,-0.021,-0.0283,-0.0282,-0.0015,-0.0003,0.0008,-0.0103,0,0,0,0,0]}]]